This is the latest recevied weather packets stored in our database for station/object N6DZK. If no packets are shown the sender has not sent any weather packets the latest 10 day(s).
| Time | Temp. | Humidity | Pressure | Rain* | Wind** | Luminosity | Snow |
|---|---|---|---|---|---|---|---|
| 1777602436 | 20.56° C | 48% | 1012.9 hPa | 0 mm | - | 26 W/m² | - |
| 1777602133 | 20.56° C | 47% | 1012.7 hPa | 0 mm | - | 30 W/m² | - |
| 1777601828 | 21.11° C | 45% | 1012.9 hPa | 0 mm | - | 34 W/m² | - |
| 1777601524 | 21.11° C | 43% | 1013 hPa | 0 mm | - | 38 W/m² | - |
| 1777601219 | 21.67° C | 49% | 1012.8 hPa | 0 mm | - | 41 W/m² | - |
| 1777600917 | 21.67° C | 50% | 1012.8 hPa | 0 mm | - | 45 W/m² | - |
| 1777600612 | 21.67° C | 50% | 1012.8 hPa | 0 mm | - | 49 W/m² | - |
| 1777600308 | 22.22° C | 50% | 1012.8 hPa | 0 mm | - | 56 W/m² | - |
| 1777600004 | 22.22° C | 51% | 1012.6 hPa | 0 mm | - | 55 W/m² | - |
| 1777599701 | 22.78° C | 51% | 1012.6 hPa | 0 mm | - | 76 W/m² | - |
| 1777599397 | 22.78° C | 50% | 1012.7 hPa | 0 mm | - | 88 W/m² | - |
| 1777599095 | 23.33° C | 50% | 1012.4 hPa | 0 mm | - | 101 W/m² | - |
| 1777598793 | 23.33° C | 49% | 1012.9 hPa | 0 mm | - | 134 W/m² | - |
| 1777598492 | 23.89° C | 48% | 1012.5 hPa | 0 mm | - | 125 W/m² | - |
| 1777598192 | 23.89° C | 48% | 1012.7 hPa | 0 mm | - | 188 W/m² | - |
| 1777597891 | 23.89° C | 49% | 1012.6 hPa | 0 mm | - | 205 W/m² | - |
| 1777597586 | 23.89° C | 48% | 1012.5 hPa | 0 mm | - | 221 W/m² | - |
| 1777597282 | 24.44° C | 49% | 1012.6 hPa | 0 mm | - | 203 W/m² | - |
| 1777596977 | 25° C | 47% | 1012.6 hPa | 0 mm | - | 247 W/m² | - |
| 1777596674 | 24.44° C | 48% | 1012.4 hPa | 0 mm | - | 272 W/m² | - |
| 1777596371 | 24.44° C | 47% | 1012.4 hPa | 0 mm | - | 284 W/m² | - |
| 1777596068 | 24.44° C | 47% | 1012.4 hPa | 0 mm | - | 299 W/m² | - |
| 1777595763 | 25° C | 46% | 1012.4 hPa | 0 mm | - | 320 W/m² | - |
| 1777595459 | 25° C | 46% | 1012.6 hPa | 0 mm | - | 96 W/m² | - |
| 1777595155 | 25° C | 46% | 1012.4 hPa | 0 mm | - | 354 W/m² | - |
* Rain latest hour (hover to see other rain measurements)
** Current wind speed in m/s (hover to see current wind gust speed)